Location: ??
(35.5052°N, 139.7262°E)
Time: 16:59:32
(UTC+00:00)

Cosmos 2298 Rocket - Pass Details

Date: 20 June 2021
Orbit: 775 x 784 km, 74.0° (Epoch: 30 July)

Event Time Altitude Azimuth Distance (km) Brightness Sun altitude
Rises 17:34:02 0° 336° (NNW) 3,274 7.6 -18.5°
Reaches altitude 10° 17:36:29 10° 332° (NNW) 2,343 6.8 -18.2°
Maximum altitude 17:41:37 51° 257° (WSW) 982 4.2 -17.5°
Enters shadow 17:44:36 24° 192° (SSW) 1,581 5.1 -17.0°
